sat.trackr.live / text

‹ back to catalog

STARLINK-36310

NORAD 68244 · 2026-054N

PAYLOAD ACTIVE UNKNOWN

§ Identity

Operator
Country
US
Launch date
2026-03-17
Launch site
AFETR
Launch vehicle
Mass (kg)
RCS (m²)

Purposes: comms

External: N2YO · Heavens-Above · Gunter

§ Orbital elements

Epoch: 2026-09-19T20:39:33.848352Z

Period
93.85 min
Inclination
53.1560°
Eccentricity
0.0000983
Mean motion
15.34405282 rev/d
Perigee alt
462.0 km
Apogee alt
463.4 km
Semi-major
6,840.8 km
B*
3.2920e-4
RAAN
104.7860°
Arg perigee
95.1553°
Mean anomaly
264.9562°
Rev number
2,886

§ Raw data

STARLINK-363101 68244U 26054N   26262.86080843  .00010764  00000+0  32920-3 0  99922 68244  53.1560 104.7860 0000983  95.1553 264.9562 15.34405282 28862

JSON: /api/v1/satellites/68244 · /tle

For live sub-satellite position, see the globe view (requires WebGL).

§ Visibility from observer

Set your observer location to see the next 7 days of passes ≥ 10°. The values pass through the URL so the page stays shareable.

No JS? Fill the form by hand. The geolocation button needs JavaScript.